Location: Unspecified
(0.0000°N, 0.0000°E)
Time: 11:17:46
(UTC+00:00)

deb Explorer IX - Pass Details

Date: 23 November 2019
Orbit: 546 x 1104 km, 38.8° (Epoch: 14 December)

Event Time Altitude Azimuth Distance (km) Brightness Sun altitude
Rises 17:04:24 0° 190° (S) 3,522 ? 9.8°
Reaches altitude 10° 17:09:29 10° 155° (SSE) 2,730 ? 8.6°
Maximum altitude 17:11:06 11° 141° (SE) 2,705 ? 8.3°
Drops below altitude 10° 17:12:46 10° 127° (SE) 2,809 ? 7.9°
Sets 17:18:17 0° 93° (E) 3,861 ? 6.6°
